Tracking 29892 objects as of 21-Nov-2024
HD Live streaming from Space Station
objects crossing your sky now

STARLINK-5737

Track STARLINK-5737 now!
10-day predictions
STARLINK-5737 is classified as:


NORAD ID: 55570
Int'l Code: 2023-020B
Perigee: 565.4 km
Apogee: 567.0 km
Inclination: 43.0 °
Period: 95.8 minutes
Semi major axis: 6937 km
RCS: Unknown
Launch date: February 12, 2023
Source: United States (US)
Launch site: AIR FORCE EASTERN TEST RANGE (AFETR)
Your satellite tracking list
Your tracking list is empty




NASA's NSSDC Master Catalog

Two Line Element Set (TLE):
1 55570U 23020B   24325.76180770  .00002154  00000-0  17438-3 0  9999
2 55570  43.0045  60.2281 0001143 277.4779  82.5933 15.02555898 97623
Source of the keplerian elements: AFSPC